Weather in Oludeniz

Turkey     36°34′33″N   29°09′04″E
temp.,
°C
wind,
m/s
gust,
m/s
humid.,
%
clouds,
%
prec.,
mm/h
press.,
hPa
HPBL,
m
18 may, tue
tue1800:00+15ne22685 0.0 101218
03:00+15ne226239 0.0 101112
06:00+15ne1161100 0.0 101214
09:00+23sw11373 0.0 1012407
12:00+26wsw43355 0.0 10131037
15:00+27wsw43330 0.0 10121173
18:00+25w33350 0.0 1012788
21:00+18nne33585 0.0 101330
19 may, wed
wed1900:00+17nne33550 0.0 101326
03:00+16nne22540 0.0 101318
06:00+15ene115749 0.0 101311
09:00+24w11319 0.0 1014407
12:00+28sw42250 0.0 10131315
15:00+28sw43241 0.0 10131163
18:00+25wsw32330 0.0 1013698
21:00+17nne11672 0.0 101311
20 may, thu
thu2000:00+16ne11610 0.0 101311
03:00+16ene22430 0.0 101215
06:00+16ene22340 0.0 101111
09:00+25w11270 0.0 1012444
12:00+28wsw43200 0.0 10121357
15:00+28wsw43220 0.0 10111112
18:00+26wsw21270 0.0 1011730
21:00+17nne11520 0.0 101213
21 may, fri
fri2100:00+17ne22490 0.0 101218
03:00+16ne22440 0.0 101012
06:00+16e11430 0.0 100911
09:00+23ssw44360 0.0 1010602
12:00+24sw55380 0.0 10091073
15:00+23wsw44428 0.0 10101294
18:00+20nw4451100 0.0 1010895
21:00+14nnw12800 0.0 101141
22 may, sat
sat2200:00+12nnw11830 0.0 101131
03:00+11nne22840 0.0 101040
06:00+9n22790 0.0 101028
09:00+18n45390 0.0 1010846
12:00+23nw45290 0.0 10091685
15:00+25wnw36240 0.0 10082245
18:00+24wnw45300 0.0 10081680
21:00+17nne35450 0.0 101094